www.pogodaiklimat.ru

Погода и климат >> Архив погоды >> Россия >> Коми >> Петрунь


АРХИВ ПОГОДЫ в Петруни

Время (UTC), дата Ветер
(напр.,м/с)
 
Видим.   Явления Облачность Т
(С)
Тd
(С)
f
(%)
Тe
(С)
Тes
(С)
Комфортность P
(гПа)
Po
(гПа)
Тmin
(С)
Tmax
(С)
R
(мм)
R24
(мм)
S
(см)
00 14.04 ЮЗ 2 29 км 10/10 1440 м
[Sc]
-10.8 -12.4 88 -15 -15 1026.3 1018.1
03 14.04 ЮЗ 4 45 км 9/9 960 м
[Sc]
-10.1 -12.8 81 -17 -17 1025.1 1016.9 -11.7 67
06 14.04 ЮЗ 4 50 км 5/0
[Ci fib]
-5.9 -10.3 71 -12 -9 1022.8 1014.8
09 14.04 ЮЗ 6-11
{11}
40 км позёмок 10/0
[Ac As]
-2.6 -8.8 62 -9 -9 1019.8 1011.9
12 14.04 ЮЗ 5-11
{11}
8000 м слаб. снег {метель} 10/0
[As op]
-3.4 -5.3 87 -10 -10 1016.7 1008.8
15 14.04 ЮЗ 5
{11}
3800 м снег {метель} 10/10 240 м
[Frnb Ns]
-2.7 -3.6 94 -10 -10 1011.8 1003.9 -2.4 0.9
18 14.04 ЮЗ 4
{12}
2500 м снег {метель} 10/10 210 м
[Frnb Ns]
-1.5 -2.1 96 -7 -7 1008.0 1000.2
21 14.04 З 3 7000 м слаб. снег {метель} 10/3 300 м
[Frnb As op]
-1.5 -1.9 97 -7 -7 1005.1 997.3
00 15.04 ЮЗ 3 7000 м слаб. снег {метель} 10/3 300 м
[Frnb As op]
-1.7 -2.1 97 -7 -7 1003.1 995.3
03 15.04 З 4
{10}
30 км в посл. час снег 9/9 420 м
[St]
-2.1 -3.5 90 -8 -8 1002.0 994.2 -2.7 3 74
06 15.04 СЗ 6-10
{11}
7000 м слаб. ливневой снег 9/9 450 м
[Cb cap]
-2.8 -5.0 85 -10 -10 1002.5 994.7 -2.8
09 15.04 СЗ 7-11
{13}
23 км позёмок {ливн. осадки} 10/10 400 м
[St]
-5.1 -8.1 79 -13 -13 1004.8 996.9
12 15.04 СЗ 7-12
{14}
25 км позёмок {ливн. осадки} 10/10 420 м
[St]
-7.0 -10.0 79 -16 -16 1007.0 999.1
15 15.04 СЗ 5
{14}
29 км позёмок 10/10 500 м
[St]
-8.6 -11.1 82 -16 -16 1008.7 1000.7 -1.9 0.2
18 15.04 С 5
{11}
30 км позёмок 3/0
[Ac As]
-22.7 -15.2 100 -33 -33 опасность
обморожения
1010.4 1002.3
21 15.04 СЗ 5 28 км {метель} 9/9 1320 м
[Sc]
-15.1 -17.6 81 -24 -24 1011.8 1003.6
00 16.04 С 6
{13}
30 км позёмок 1/0
[Ac lent]
-16.7 -19.4 80 -27 -27 1014.0 1005.7
03 16.04 С 9-14
{14}
4200 м слаб. снег {метель} 10/0
[As op]
-15.5 -18.0 81 -27 -27 1016.9 1008.6 -16.8 0.3 69
06 16.04 С 7-12
{14}
26 км позёмок {снег} 6/0
[Ac As Ci sp]
-15.1 -18.9 73 -25 -24 1021.5 1013.2
09 16.04 С 7-12
{13}
23 км позёмок 1/1 600 м
[Sc]
-13.7 -18.5 67 -24 -22 1026.0 1017.7
12 16.04 С 6
{13}
28 км позёмок 5/5 600 м
[Sc]
-12.3 -17.2 67 -21 -21 1029.6 1021.3
15 16.04 С 4
{11}
30 км {метель} 5/0
[Ac As]
-15.1 -18.0 78 -23 -23 1031.7 1023.3 -11.9 0.0
18 16.04 СЗ 2 35 км {метель} ясно -18.8 -20.3 88 -24 -24 1032.7 1024.1
21 16.04 З 1 35 км ясно -21.2 -23.4 82 -24 -24 1033.1 1024.5
00 17.04 ЮЗ 2 30 км ясно -22.8 -25.2 81 -29 -29 1033.4 1024.7
03 17.04 ЮЗ 2 35 км 5/0
[Ci fib]
-20.4 -22.8 81 -26 -25 1032.5 1023.9 -23.5 69
06 17.04 ЮЗ 4 40 км 10/0
[Cs]
-14.3 -17.7 75 -22 -19 1030.1 1021.7
09 17.04 ЮЗ 4 45 км 10/0
[Cs]
-8.4 -13.4 67 -15 -11 1026.9 1018.8
12 17.04 ЮЗ 6-10
{10}
10 км слаб. снег {метель} 10/0
[As op]
-6.5 -11.1 70 -14 -14 1023.6 1015.5
15 17.04 ЮЗ 5-10
{11}
3400 м снег {метель} 10/3 300 м
[Frnb As op]
-6.3 -7.8 89 -14 -14 1020.1 1012.1 -5.6 0.6
18 17.04 ЮЗ 4
{10}
24 км {снег, метель} 10/10 400 м
[St]
-4.3 -5.7 90 -11 -11 1017.2 1009.2
21 17.04 З 6
{10}
7000 м слаб. снег {метель} 10/3 300 м
[Frnb As op]
-2.1 -3.2 92 -9 -9 1015.0 1007.2
00 18.04 З 6-10
{11}
27 км позёмок {снег} 10/10 360 м
[St]
-0.5 -2.2 88 -7 -7 1013.9 1006.1
03 18.04 З 5
{10}
6000 м слаб. снег {метель} 10/10 300 м
[Frnb Ns]
-0.6 -1.4 94 -7 -7 1013.3 1005.5 -6.3 1 71
06 18.04 З 6
{10}
27 км {снег, метель} 10/10 400 м
[St]
+0.6 -1.4 86 -6 -6 1012.7 1004.9
09 18.04 З 4 35 км 10/10 1260 м
[Sc]
+2.0 -1.6 77 -3 -3 1014.7 1007.0
12 18.04 СЗ 4 30 км 10/10 570 м
[Sc]
+1.2 -2.2 78 -4 -4 1016.1 1008.3
15 18.04 З 5 29 км 10/10 450 м
[St]
+0.5 -1.2 88 -6 -6 1016.3 1008.5 +2.3 0.2
18 18.04 З 6
{10}
30 км 10/10 570 м
[Sc]
+0.3 -2.2 83 -6 -6 1015.4 1007.6
21 18.04 З 6
{13}
27 км позёмок 10/10 600 м
[St]
+0.2 -2.1 85 -6 -6 1014.0 1006.2
00 19.04 З 5
{12}
29 км {метель} 10/10 420 м
[St]
-0.1 -1.3 92 -6 -6 1013.6 1005.8
03 19.04 СЗ 5 30 км {снег} 10/10 720 м
[Sc]
-0.7 -3.3 83 -7 -7 1014.3 1006.5 -0.8 0.2 69
06 19.04 35 км {ливн. осадки} н/о -1.9 -5.3 78 -8 -7 1016.3 1008.4 -2.0
09 19.04 СЗ 3 40 км 9/9 720 м
[Sc]
-1.6 -7.8 63 -6 -6 1018.1 1010.2
12 19.04 СЗ 2 45 км 9/9 800 м
[Sc]
-1.1 -6.8 65 -4 -4 1018.8 1011.0
15 19.04 З 1 35 км 10/10 660 м
[Sc]
-1.5 -5.6 74 -3 -3 1018.8 1011.0 -0.7 0.0
18 19.04 ЮЗ 2 10 км слаб. снег 10/10 660 м
[Sc]
-2.0 -3.3 91 -6 -6 1018.6 1010.7
21 19.04 З 2 27 км {снег} 10/10 270 м
[St]
-1.4 -2.0 96 -5 -5 1018.0 1010.1
00 20.04 З 2 4200 м слаб. снег 10/10 240 м
[Frnb Ns]
-0.1 -0.6 96 -4 -4 1017.9 1010.1
03 20.04 З 4 29 км {снег} 10/10 270 м
[St]
+0.1 -1.1 92 -5 -5 1017.9 1010.1 -2.1 1 71
06 20.04 З 5 27 км {снег} 10/10 400 м
[St]
+1.4 -0.6 87 -4 -4 1018.0 1010.2
09 20.04 З 5 9000 м слаб. снег 10/10 570 м
[Sc]
+1.8 -0.7 83 -4 -4 1018.2 1010.4
12 20.04 З 6-11
{11}
25 км в посл. час дождь 10/10 450 м
[St]
+1.7 -0.8 83 -4 -4 1018.2 1010.4
15 20.04 З 5
{11}
30 км 9/9 700 м
[Sc]
+1.4 -2.1 77 -4 -4 1017.5 1009.7 +2.4 0.4
18 20.04 З 3 30 км 10/10 800 м
[Sc]
+1.2 -2.4 77 -3 -3 1016.0 1008.2
21 20.04 ЮЗ 4 3900 м слаб. ливневой снег 10/10 480 м
[Cb cap]
-0.1 -1.2 92 -6 -6 1013.2 1005.4

 

Местоположение метеостанции Петрунь (Коми, Россия): широта 66.43 долгота 60.77 высота над уровнем моря 62 м.

В архиве по умолчанию представлена погода в Петруни за последнюю неделю. Архивные данные за месяц целиком и за предыдущие месяцы, начиная с января 2011 года, Вы можете получить, выбрав интересующий диапазон дат из раскрывающегося списка и нажав кнопку "Ввод!".


*Определитесь, кто Вы:
робот инопланетянин человек

Внимание! Время в таблицах - всемирное. Для получения местного времени необходимо прибавить поправку, которая равна 3 ч.

Смотрите также архив погоды в соседних городах и на ближайших метеорологических станциях:

Погода в Харуте (Ненецкий АО, Россия) (72 км)
Погода в Усинске (Коми, Россия) (159 км)
Погода в Елецкой (Коми, Россия) (160 км)
Погода в Хорей-Вере (Ненецкий АО, Россия) (163 км)
Погода в Усть-Усе (Коми, Россия) (180 км)
Погода в Воркуте (Коми, Россия) (182 км)
Погода в Мужах (Ямало-Ненецкий АО, Россия) (214 км)
Погода в Печоре (Коми, Россия) (222 км)
Погода в Харпе (Ямало-Ненецкий АО, Россия) (225 км)
Погода в Саранпауле (Ханты-Мансийский АО, Россия) (239 км)

Пояснения к столбцам:

Ветер - указаны скорость ветра в м/с - средняя за 10 мин, порывы в срок и между сроками (в фигурных скобках) и направление, откуда дует ветер: С - северный, СВ - северо-восточный, В - восточный, ЮВ - юго-восточный, Ю - южный, ЮЗ - юго-западный, З - западный, СЗ - северо-западный.
Видимость - горизонтальная дальность видимости в метрах или километрах. При видимости от 1 до 10 км при отсутствии осадков обычно наблюдается дымка, при ухудшении видимости до 1 км и менее - туман. В сухую погоду видимость может ухудшаться дымом, пылью или мглою.
Явления - указаны атмосферные явления, наблюдавшиеся в срок или в последний час перед сроком; фигурными скобками обозначены явления, наблюдавшиеся между сроками (за 1-3 часа до срока); квадратными скобками обозначены град или гололедные отложения с указанием их диаметра в мм.
Облачность - указаны через наклонную черту общая и нижняя облачность в баллах и высота нижней границы облаков в метрах; квадратными скобками обозначены формы облаков: Ci - перистые, Cs - перисто-слоистые, Cc - перисто-кучевые, Ac - высококучевые, As - высокослоистые, Sc - слоисто-кучевые, Ns - слоисто-дождевые, Cu - кучевые, Cb - кучево-дождевые. Подробнее классификацию облаков см. в Атласе облаков (PDF).
T - Температура воздуха - температура, измеренная на высоте 2 м над землей.
Td - Температура точки росы - температура, при понижении до которой содержащийся в воздухе водяной пар достигнет насыщения.
f - Относительная влажность воздуха - влажноcть воздуха, измеренная на высоте 2 м над землей.
Te - Эффективная температура - температура, которую ощущает одетый по сезону человек в тени. Характеристика душности погоды. При расчете учитывается влияние влажности воздуха и скорости ветра на теплоощущения человека.
Tes - Эффективная температура на солнце - температура, которую ощущает человек, с поправкой на солнечный нагрев. Характеристика знойности погоды. Зависит от высоты солнца над горизонтом, облачности и скорости ветра. Ночью, в пасмурную погоду, а также при ветре 12 м/с и более поправка равна нулю.
P - Атмосферное давление - приведенное к уровню моря атмосферное давление.
Po - Атмосферное давление - измеренное на уровне метеостанции атмосферное давление.
Tmin - Минимальная температура - минимум температуры воздуха на высоте 2 м над землей.
Tmax - Максимальная температура - максимум температуры воздуха на высоте 2 м над землей.
R - Количество осадков - Количество выпавших осадков за период времени, мм. При наведении курсора мыши на число - период времени, за который выпало указанное количество осадков.
R24 - Количество осадков - Количество выпавших осадков за 24 часа, мм.
S - Снежный покров - Высота снежного покрова, см. При наведении курсора мыши на число - состояние снежного покрова и степень покрытия местности в баллах.